Date,TemperatureHighF,TemperatureAvgF,TemperatureLowF,DewpointHighF,DewpointAvgF,DewpointLowF,HumidityHigh,HumidityAvg,HumidityLow,PressureMaxIn,PressureMinIn,WindSpeedMaxMPH,WindSpeedAvgMPH,GustSpeedMaxMPH,PrecipitationSumIn
2013-1-1,36,34,29,35,32,24,95,92,81,29.95,29.82,22,7,22,0.01
2013-1-2,34,26,18,18,15,10,81,63,44,30.05,29.97,8,2,8,0.00
2013-1-3,40,29,19,28,21,11,82,72,59,30.19,30.01,16,3,16,0.00
2013-1-4,43,33,23,33,26,19,87,75,57,30.23,30.13,19,5,19,0.00
2013-1-5,43,36,26,34,29,22,87,76,62,30.14,29.98,14,6,14,0.00
2013-1-6,42,35,25,36,28,19,92,77,59,30.17,29.91,24,8,24,0.00
2013-1-7,47,32,20,28,23,16,86,69,45,30.23,29.98,16,4,16,0.00
2013-1-8,56,43,30,36,30,22,74,62,42,30.04,29.94,20,5,20,0.00
2013-1-9,59,51,45,48,42,36,90,72,60,30.19,29.99,19,6,19,0.04
2013-1-10,67,56,46,62,52,38,97,89,65,30.18,29.63,34,15,34,0.86
2013-1-11,63,58,55,57,52,48,90,79,63,29.77,29.63,24,11,27,0.01
2013-1-12,70,64,48,66,61,47,98,92,84,29.73,27.19,34,9,34,1.31
2013-1-13,48,34,25,46,31,19,98,89,72,30.08,29.53,32,8,34,1.51
2013-1-14,29,26,21,22,18,13,78,71,67,30.19,29.93,17,5,17,0.00
2013-1-15,32,29,24,26,24,18,87,79,65,30.10,29.85,21,9,21,0.01
2013-1-16,33,31,29,27,25,24,88,80,72,29.92,29.83,14,4,14,0.00
2013-1-17,46,35,25,35,27,19,88,74,63,30.21,29.86,34,9,34,0.01
2013-1-18,47,42,32,32,28,21,66,57,52,29.92,29.61,17,9,17,0.01
2013-1-19,56,46,36,36,32,26,71,58,44,29.71,29.48,34,14,34,0.00
2013-1-20,48,40,28,36,22,9,83,52,23,29.73,29.55,21,7,21,0.00
2013-1-21,35,28,23,16,9,1,61,46,33,29.78,29.65,29,11,29,0.00
2013-1-22,27,22,17,3,-4,-9,46,32,23,29.89,29.77,17,4,17,0.00
2013-1-23,47,32,19,31,17,0,78,55,42,29.80,29.57,21,5,21,0.00
2013-1-24,35,30,22,26,10,3,74,45,30,29.97,29.67,26,12,26,0.00
2013-1-25,41,32,27,28,22,3,86,66,30,29.68,29.53,21,6,21,0.02
2013-1-26,49,36,27,29,23,17,87,61,36,29.79,29.66,15,4,15,0.00
2013-1-27,53,40,31,46,35,18,95,80,58,29.75,29.51,19,9,19,0.11
2013-1-28,65,59,53,59,54,46,95,85,72,29.54,29.45,26,14,26,0.08
2013-1-29,71,64,54,61,58,52,94,80,69,29.46,28.85,64,19,64,1.44
2013-1-30,57,46,33,52,40,19,97,79,55,29.37,28.87,46,18,46,0.74
2013-1-31,42,33,21,31,21,4,91,62,48,29.76,29.38,36,18,36,0.00
2013-2-1,27,21,13,12,4,-3,56,46,32,29.95,29.73,30,8,34,0.00
2013-2-2,42,34,26,30,22,12,74,61,49,29.96,29.51,24,8,24,0.00
2013-2-3,43,36,30,32,24,17,78,62,44,29.99,29.83,34,10,34,0.00
2013-2-4,48,40,30,40,31,20,92,71,46,29.91,29.70,27,10,27,0.01
2013-2-5,55,41,29,42,35,26,98,81,52,29.91,29.75,17,5,17,0.00
2013-2-6,54,43,31,38,31,27,99,64,36,30.08,29.91,14,6,14,0.00
2013-2-7,64,54,42,54,42,30,95,66,52,29.91,29.69,28,8,28,0.19
2013-2-8,50,40,34,47,34,26,91,78,64,30.19,29.77,30,14,30,0.00
2013-2-9,49,40,32,33,29,25,75,65,50,30.19,29.88,20,8,20,0.00
2013-2-10,58,53,45,54,45,33,89,75,53,29.88,29.53,44,17,44,0.73
2013-2-11,56,47,36,50,32,27,80,56,45,29.98,29.70,28,12,28,0.00
2013-2-12,50,42,30,36,30,26,87,63,44,29.99,29.69,16,4,16,0.02
2013-2-13,46,40,36,37,35,33,91,83,63,29.78,29.65,19,9,19,0.28
2013-2-14,59,46,35,42,37,32,92,72,51,29.86,29.74,21,9,21,0.00
2013-2-15,46,40,30,34,25,13,80,57,34,30.05,29.86,29,8,29,0.00
2013-2-16,37,32,26,12,5,2,45,32,24,29.92,29.87,24,7,24,0.00
2013-2-17,48,40,24,26,20,6,64,45,35,29.93,29.73,21,9,21,0.00
2013-2-18,59,49,40,48,38,24,91,68,44,29.74,29.38,40,18,40,0.96
2013-2-19,44,42,40,39,36,33,83,79,75,29.65,29.57,34,19,34,0.00
2013-2-21,33,33,32,30,29,28,89,87,85,29.97,29.89,0,0,0,0.00
2013-2-22,42,41,41,36,36,35,81,80,79,30.10,30.09,18,13,19,0.00
2013-2-23,43,35,27,26,24,20,79,65,46,29.92,29.82,13,5,13,0.00
2013-2-24,53,39,26,27,23,19,78,56,32,29.99,29.85,11,5,11,0.00
2013-2-25,57,50,36,39,29,23,81,47,27,29.87,29.27,31,18,31,0.20
2013-2-26,51,44,39,49,40,34,96,85,74,29.54,29.18,30,16,30,0.60
2013-2-27,39,38,34,34,31,28,85,78,66,29.75,29.54,28,16,28,0.00
2013-2-28,38,35,33,31,28,24,87,74,66,29.95,29.75,22,12,22,0.00
2013-3-1,36,34,31,32,30,28,92,88,79,29.99,29.89,18,8,18,0.01
2013-3-2,33,31,30,28,23,14,88,73,48,30.07,29.95,27,11,27,0.00
2013-3-3,41,33,23,27,19,14,72,56,38,30.06,29.93,16,5,16,0.00
2013-3-4,59,47,37,41,28,21,77,49,34,29.95,29.64,34,11,34,0.07
2013-3-5,48,41,34,44,34,17,95,78,48,29.91,29.59,50,16,50,0.17
2013-3-6,42,36,29,27,24,21,74,61,53,30.19,29.95,33,15,33,0.00
2013-3-7,49,36,24,30,25,19,85,65,46,30.26,29.61,34,4,34,0.00
2013-3-8,56,43,28,32,27,15,82,56,26,30.01,29.82,20,7,20,0.00
2013-3-9,69,55,44,38,32,26,58,43,26,29.82,29.52,24,11,24,0.00
2013-3-10,66,57,50,55,45,38,99,67,48,29.52,29.30,39,13,39,0.53
2013-3-11,40,39,38,36,33,27,85,78,65,30.42,29.92,30,13,30,0.53
2013-3-12,51,41,30,32,28,22,87,60,37,30.27,30.09,24,8,24,0.00
2013-3-13,44,37,30,28,20,15,66,50,33,30.50,30.27,33,12,33,0.00
2013-3-14,50,38,25,29,23,16,73,56,41,30.50,30.21,17,6,17,0.00
2013-3-15,75,58,40,54,42,26,76,57,43,30.21,29.86,27,10,27,0.00
2013-3-16,69,58,40,54,46,35,83,66,55,30.06,29.83,36,14,36,0.00
2013-3-17,45,41,38,43,40,36,99,94,80,30.14,29.80,23,11,23,0.72
2013-3-18,51,45,40,46,42,37,99,90,70,30.09,29.73,30,12,30,0.25
2013-3-19,52,44,36,37,26,14,89,56,22,30.29,30.08,23,6,23,0.25
2013-3-20,44,37,28,30,20,13,61,51,42,30.31,27.22,29,8,29,0.00
2013-3-21,44,32,21,20,14,6,70,48,28,30.20,30.06,17,5,17,0.00
2013-3-22,43,39,34,26,23,19,57,52,47,30.15,30.03,16,8,16,0.00
2013-3-23,55,47,41,43,32,26,88,57,45,30.07,29.83,22,9,22,0.01
2013-3-24,47,40,34,43,37,28,97,88,74,29.87,29.54,36,17,36,0.14
2013-3-25,38,34,32,31,27,24,93,74,58,30.26,29.87,35,20,35,0.00
2013-3-26,44,36,30,31,26,21,91,70,47,30.44,30.26,22,8,22,0.00
2013-3-27,50,39,26,31,24,19,81,57,37,30.48,30.38,19,3,19,0.00
2013-3-28,61,50,40,39,33,29,70,53,37,30.45,30.33,14,4,14,0.00
2013-3-29,57,51,46,50,45,36,94,83,53,30.35,30.26,20,6,20,0.65
2013-3-30,49,46,44,48,45,43,99,97,93,30.29,30.22,15,6,15,0.00
2013-4-7,72,67,61,58,57,55,82,71,62,29.92,29.85,14,10,14,0.34
2013-4-8,74,66,59,60,57,53,86,72,57,29.88,29.78,23,10,23,0.02
2013-4-9,80,74,63,67,65,57,86,74,63,29.95,29.81,29,12,29,0.00
2013-4-10,83,76,64,69,66,63,99,73,56,29.87,29.62,29,14,29,0.25
2013-4-11,67,56,45,67,54,38,99,95,75,29.72,29.52,34,10,34,1.05
2013-4-12,61,49,39,43,38,34,92,70,40,29.99,29.70,33,10,33,0.00
2013-4-13,66,52,35,45,39,32,95,65,41,30.05,29.89,14,4,14,0.00
2013-4-14,74,63,51,57,48,42,75,60,39,29.89,29.69,37,12,37,0.02
2013-4-15,80,68,60,64,58,52,87,73,51,29.88,29.75,24,12,24,0.00
2013-4-16,69,69,69,57,57,57,66,66,66,29.96,29.88,13,13,13,0.00
2013-4-17,82,71,69,73,60,57,85,68,66,29.97,29.88,26,13,26,0.13
2013-4-18,79,71,46,69,64,45,99,81,58,29.90,29.66,45,17,45,1.59
2013-4-19,51,45,41,45,36,32,97,70,53,30.15,29.81,30,14,30,0.01
2013-4-20,63,50,35,46,36,31,99,63,32,30.37,30.15,19,4,19,0.00
2013-4-21,65,54,42,40,35,33,74,50,32,30.46,30.30,18,8,18,0.00
2013-4-22,74,61,47,50,44,35,73,54,35,30.32,30.09,19,7,19,0.00
2013-4-23,73,65,50,62,56,48,99,73,60,30.12,29.91,30,13,30,0.00
2013-4-24,53,45,39,49,41,36,99,86,56,30.35,29.97,34,10,34,0.21
2013-4-25,68,51,36,44,40,34,99,69,37,30.42,30.33,15,5,15,0.00
2013-4-26,53,52,50,51,47,41,99,85,68,30.48,30.30,21,6,21,0.41
2013-4-27,61,56,50,60,55,50,99,98,94,30.37,29.96,24,7,24,0.57
2013-4-28,62,57,53,59,55,52,99,92,79,30.02,29.95,16,6,16,0.01
2013-4-29,74,62,47,60,55,47,99,81,58,30.06,29.93,16,6,16,0.00
2013-4-30,83,71,57,60,57,52,91,64,39,30.04,29.94,16,7,16,0.00
2013-5-1,83,71,60,66,60,54,85,70,49,30.15,30.04,25,6,25,0.00
2013-5-2,73,68,62,63,60,57,97,77,61,30.20,30.08,11,4,11,0.07
2013-5-3,70,58,43,62,55,42,99,92,70,30.08,27.60,28,10,28,0.94
2013-5-4,53,44,41,42,41,38,99,88,62,30.01,29.92,16,6,16,0.14
2013-5-8,81,76,70,69,60,49,76,59,34,29.92,29.74,16,6,16,0.14
2013-5-9,80,73,68,65,62,60,77,68,53,29.92,29.80,26,9,26,0.00
2013-5-10,77,68,64,67,64,62,99,89,63,29.83,29.73,21,7,21,0.24
2013-5-13,70,56,0,66,42,34,96,41,32,29.99,29.77,11,6,11,0.24
2013-5-14,86,72,57,63,56,44,82,60,43,29.85,29.66,25,11,25,0.00
2013-5-15,84,76,69,64,59,55,66,56,43,29.77,29.65,24,11,24,0.00
2013-5-16,82,73,68,68,63,58,93,71,52,29.90,29.64,18,6,18,0.06
2013-5-17,74,68,64,68,66,62,99,90,81,29.93,29.87,23,7,23,0.15
2013-5-18,84,73,65,70,68,65,99,83,58,29.96,29.87,11,4,11,0.00
2013-5-19,88,80,71,76,71,68,99,77,54,29.89,29.78,20,8,20,0.00
2013-5-20,89,80,72,73,70,66,93,74,48,29.91,29.76,28,12,28,0.00
2013-5-21,79,71,66,73,67,64,99,90,67,30.54,29.73,46,12,46,1.26
2013-5-22,78,70,64,66,64,61,99,82,56,29.81,29.68,26,10,26,0.07
2013-5-23,74,67,58,65,58,53,94,75,57,30.12,29.81,27,11,27,0.00
2013-5-24,73,61,48,67,47,42,95,64,34,30.07,29.66,19,5,19,0.00
2013-5-25,78,65,50,57,52,47,93,65,38,30.05,29.86,65,4,65,0.00
2013-5-26,84,72,60,63,58,55,87,63,41,29.91,29.80,16,6,16,0.00
2013-5-31,79,79,78,74,74,74,86,85,84,29.96,29.92,21,13,21,0.59
2013-6-1,78,69,64,74,67,63,99,94,77,30.70,29.83,33,10,33,3.06
2013-6-2,76,70,65,68,64,60,99,82,62,30.05,29.95,18,7,18,0.00
2013-6-3,76,67,59,62,59,55,99,77,54,30.12,30.02,14,5,14,0.00
2013-6-4,83,70,55,64,60,54,97,73,47,30.12,30.02,15,4,15,0.00
2013-6-5,86,76,65,68,64,61,95,70,48,30.05,29.87,17,4,17,0.18
2013-6-6,82,74,67,70,66,62,99,78,54,29.91,29.83,17,7,17,0.14
2013-6-7,79,71,65,66,62,59,94,75,55,29.95,29.84,22,8,23,0.00
2013-6-8,82,72,60,66,60,52,99,71,40,30.05,29.94,19,3,19,0.00
2013-6-9,68,68,68,62,61,60,81,77,76,30.05,30.04,8,5,8,0.00
2013-6-11,94,80,64,76,70,63,99,74,54,29.92,29.84,14,5,14,0.00
2013-6-12,94,86,76,76,74,71,89,68,48,29.94,29.76,24,12,24,0.00
2013-6-13,85,79,69,75,69,64,88,73,57,29.89,29.74,24,13,24,0.00
2013-6-14,84,74,60,65,62,59,97,68,46,30.00,29.89,17,4,17,0.00
2013-6-15,88,76,63,70,65,61,96,70,43,30.02,29.90,13,4,13,0.00
2013-6-16,87,79,71,74,71,68,91,77,59,29.94,29.86,12,4,12,0.00
2013-6-17,88,72,68,75,70,67,99,95,56,29.87,29.81,19,6,42,0.83
2013-6-18,87,76,66,72,68,66,99,79,54,29.91,29.77,20,6,20,0.00
2013-6-19,91,77,65,74,69,64,99,78,44,29.98,29.88,17,4,17,0.19
2013-6-20,90,80,69,74,70,68,97,74,50,30.06,29.97,14,4,14,0.00
2013-6-21,90,82,72,74,71,69,93,72,52,30.08,30.00,17,6,17,0.00
2013-6-22,90,81,70,75,70,66,93,72,47,30.08,29.96,27,7,27,0.00
2013-6-23,89,79,70,74,70,66,92,74,54,30.03,29.91,17,6,17,0.00
2013-6-24,93,81,73,77,73,68,93,79,49,30.05,29.94,21,7,21,0.00
2013-6-25,91,83,76,78,75,73,94,77,60,29.97,29.81,20,8,20,0.00
2013-6-26,91,82,75,78,74,71,94,77,58,29.88,29.68,26,10,26,0.09
2013-6-27,94,84,74,77,73,68,98,73,44,29.81,29.73,24,8,24,0.00
2013-6-28,79,76,72,73,71,70,96,87,76,29.78,29.71,8,1,8,0.00
2013-9-19,88,79,71,76,73,70,97,85,62,30.25,30.14,10,4,10,0.00
2013-9-20,90,80,71,77,74,70,98,82,52,30.14,30.09,11,4,11,0.00
2013-9-21,93,82,72,76,73,70,93,76,54,30.12,30.07,9,3,9,0.00
2013-9-22,92,83,72,78,74,70,97,78,53,30.07,30.01,10,3,10,0.00
2013-9-23,94,84,76,79,76,74,95,80,55,29.99,29.91,10,4,10,0.00
2013-9-24,93,80,71,79,75,70,98,84,59,29.97,29.85,24,8,24,0.30
2013-9-25,83,74,64,76,68,63,99,82,61,29.95,29.88,11,2,11,0.00
2013-9-26,85,71,60,70,65,60,99,83,50,30.10,29.94,14,3,14,0.00
2013-9-27,83,70,58,66,60,55,99,74,42,30.20,30.09,14,4,14,0.00
2013-9-28,66,65,64,62,61,60,91,88,86,30.14,30.11,4,3,4,0.00
2013-10-24,39,37,35,30,29,27,74,70,66,30.09,30.02,6,1,6,0.00
2013-10-25,54,39,28,34,28,22,90,67,31,30.20,29.99,14,2,14,0.00
2013-10-26,60,47,32,46,38,28,92,72,55,29.99,29.73,21,6,21,0.00
2013-10-27,66,53,36,50,42,34,97,70,35,29.79,29.70,11,2,11,0.00
2013-10-28,72,58,47,55,51,47,98,79,48,29.91,29.73,21,2,21,0.00
2013-10-29,63,57,50,62,56,49,99,96,88,29.93,29.77,17,4,17,0.01
2013-10-30,76,69,63,67,64,62,98,85,71,29.81,29.63,23,8,23,0.01
2013-10-31,70,66,58,67,63,56,96,90,80,29.63,29.14,56,16,56,0.91
2013-11-1,67,58,50,56,49,44,98,76,48,29.52,29.36,30,8,30,0.01
2013-11-2,58,50,40,46,42,38,94,77,57,29.87,29.51,27,7,27,0.00
2013-11-3,60,47,34,47,37,32,99,71,36,29.99,29.85,17,4,17,0.00
2013-11-4,61,52,44,51,44,38,96,76,53,29.96,29.87,17,5,17,0.02
2013-11-5,65,59,52,53,47,44,84,66,54,29.99,29.80,24,9,24,0.00
2013-11-6,60,54,42,58,50,40,98,85,62,29.90,29.65,30,13,30,0.32
2013-11-7,54,44,36,40,35,29,96,74,40,30.05,29.91,16,5,16,0.00
2013-11-8,52,46,31,44,38,30,97,75,66,30.05,29.99,11,7,11,0.00
2013-11-9,51,51,51,40,40,40,66,66,66,30.04,30.04,11,11,11,0.00
2013-11-10,51,51,51,40,40,40,66,66,66,30.04,30.04,11,11,11,0.00
2013-11-11,51,51,51,40,40,40,66,66,66,30.04,30.04,11,11,11,0.00
2013-11-12,51,44,27,40,32,18,71,63,43,30.04,29.92,25,10,25,0.02
2013-11-13,46,33,20,27,20,16,87,61,33,30.01,29.71,13,2,13,0.00
2013-11-14,56,42,27,27,21,16,72,47,22,29.72,29.44,18,7,18,0.00
2013-11-15,52,46,43,46,33,24,81,59,44,29.45,29.35,14,7,14,0.01
2013-11-16,83,70,41,76,66,21,98,89,45,30.68,29.84,35,13,35,0.02
2013-11-17,76,67,57,70,57,29,97,74,32,30.03,29.62,46,17,46,0.76
2013-11-18,61,51,38,43,34,23,81,53,28,30.37,30.02,27,7,27,0.00
2013-11-19,49,41,36,32,30,27,78,65,47,30.41,30.26,14,4,14,0.00
2013-11-20,58,46,32,38,34,27,85,64,45,30.27,30.16,16,6,16,0.00
2013-11-21,60,55,50,57,49,37,96,80,58,30.28,30.21,20,7,20,0.21
2013-11-22,58,48,41,58,47,37,99,94,86,30.51,30.24,25,11,25,0.26
2013-11-23,43,35,24,37,23,10,87,63,27,30.73,30.49,36,13,36,0.00
2013-11-24,34,26,18,16,11,6,68,52,31,30.78,30.52,20,6,20,0.00
2013-11-25,37,33,29,32,22,15,93,64,45,30.52,30.25,14,5,14,0.00
2013-11-26,41,35,29,33,29,15,95,78,54,30.25,30.05,37,11,37,0.06
2013-11-27,31,25,21,15,7,0,56,46,30,30.37,30.22,37,19,37,0.01
2013-11-28,93,84,76,79,77,74,95,80,59,29.42,29.30,10,5,10,0.00
2013-11-29,83,77,71,77,74,70,98,90,77,29.41,29.29,24,8,24,0.30
2013-11-30,73,47,34,73,29,24,98,50,28,29.92,29.35,21,8,21,0.00
2013-12-1,56,48,41,41,36,29,86,65,53,29.71,29.44,11,4,11,0.00
2013-12-2,60,50,42,49,44,38,96,81,66,29.43,29.23,12,3,12,0.00
2013-12-3,49,48,48,48,47,46,97,96,95,29.26,29.24,4,2,4,0.00
2013-12-4,93,82,71,79,75,70,98,83,59,29.75,29.62,24,8,24,0.30
2013-12-5,83,41,30,76,38,27,98,88,77,30.08,29.65,24,8,24,0.01
2013-12-6,73,25,20,72,22,15,97,85,78,30.16,29.37,14,0,14,0.00
2013-12-7,25,19,13,15,10,4,78,67,59,30.17,29.91,0,0,0,0.00
2013-12-8,32,28,21,31,24,15,93,86,76,29.92,29.57,0,0,0,0.01
2013-12-9,33,28,24,27,21,13,92,75,55,29.83,29.65,0,0,0,0.01
2013-12-10,33,26,20,22,18,13,84,71,59,29.93,29.77,15,2,15,0.04
2013-12-11,37,28,20,27,20,11,87,73,54,30.16,29.90,21,6,21,0.08
2013-12-12,34,22,9,14,7,-1,69,53,28,30.17,29.90,10,3,10,0.01
2013-12-13,40,32,21,30,21,12,81,63,45,29.90,29.52,17,6,17,0.12
2013-12-14,38,36,32,36,32,13,94,86,45,29.65,29.34,25,10,25,0.69
2013-12-15,32,31,30,28,26,24,86,81,76,29.78,29.64,20,10,20,0.00
2013-12-16,50,41,32,39,34,28,86,75,59,29.67,29.58,16,8,16,0.00
2013-12-17,46,38,30,37,30,23,90,74,51,29.83,29.62,16,6,16,0.00
2013-12-18,51,40,25,33,25,18,83,56,33,29.87,29.61,17,7,17,0.00
2013-12-19,60,52,45,50,42,33,75,68,61,29.63,29.45,26,14,26,0.00
2013-12-20,66,62,57,61,56,49,91,82,69,29.46,29.33,27,13,27,0.14
2013-12-21,66,52,32,62,51,11,98,95,41,30.79,29.00,30,10,30,4.18
2013-12-22,48,41,34,48,38,28,99,90,76,30.62,30.06,24,11,24,0.00
2013-12-23,35,31,26,29,22,16,83,71,58,30.90,30.62,24,10,24,0.00
2013-12-24,32,22,14,16,8,1,74,54,36,31.02,30.81,24,8,24,0.00
2013-12-25,23,22,21,12,12,11,66,63,59,30.82,30.79,11,4,11,0.00
2013-12-27,88,79,71,77,74,70,97,84,62,29.91,29.80,10,5,10,0.00
2013-12-28,89,80,71,77,74,70,98,83,62,29.79,29.72,10,4,10,0.00
2013-12-29,92,82,72,76,73,70,93,76,52,29.75,29.70,11,3,11,0.00
2013-12-30,93,83,72,78,74,70,97,77,53,29.72,29.66,9,3,9,0.00
2013-12-31,94,84,76,79,76,74,95,80,55,29.65,29.57,10,4,10,0.00
2014-1-1,93,81,71,79,75,70,98,83,59,29.60,29.48,24,8,24,0.30
2014-1-2,140,128,72,100,80,6,99,81,1,30.17,29.50,33,15,33,0.00